This demonstration page uses our WeatherBlox Daily Observations layout. Learn more.

Hourly Observations for October 18, 2019

Temp ( °F °C ) Dew Point ( °F °C ) Humidity (%) Winds ( mph kmh ) Pressure ( in mb ) Visibility ( mi km ) Precip ( " mm )
12:54 am 00:54 Clear 55 12.8 45 7.2 69 69 SSE 12 19 29.71 1006 10 16.09344 0 0
1:54 am 01:54 Clear 55 12.8 44 6.7 67 67 SSE 12 19 29.71 1006 10 16.09344 0 0
2:54 am 02:54 Clear 54 12.2 44 6.7 69 69 S 10 17 29.68 1005 10 16.09344 0 0
3:54 am 03:54 Clear 54 12.2 44 6.7 69 69 SSE 13 20 29.68 1005 10 16.09344 0 0
4:54 am 04:54 Clear 54 12.2 44 6.7 69 69 S 13 20 29.65 1004 10 16.09344 0 0
5:54 am 05:54 Clear 53 11.7 43 6.1 69 69 S 15 24 29.62 1003 10 16.09344 0 0
6:54 am 06:54 Clear 54 12.2 43 6.1 67 67 SSE 20 31 29.62 1003 10 16.09344 0 0
7:54 am 07:54 Sunny 54 12.2 42 5.6 64 64 S 20 31 29.59 1002 10 16.09344 0 0
8:54 am 08:54 Sunny 56 13.3 42 5.6 60 60 S 21 33 29.59 1002 10 16.09344 0 0
9:54 am 09:54 Sunny 61 16.1 42 5.6 50 50 S 25 41 29.56 1001 10 16.09344 0 0
10:54 am 10:54 Sunny 66 18.9 44 6.7 45 45 S 24 39 29.53 1000 10 16.09344 0 0
11:54 am 11:54 Sunny 72 22.2 46 7.8 40 40 S 35 56 29.47 998 10 16.09344 0 0
12:54 pm 12:54 Sunny 75 23.9 48 8.9 39 39 S 35 56 29.44 997 10 16.09344 0 0
1:54 pm 13:54 Sunny 77 25 49 9.4 37 37 SSW 33 54 29.44 997 10 16.09344 0 0
2:54 pm 14:54 Sunny 78 25.6 49 9.4 36 36 S 31 50 29.44 997 10 16.09344 0 0
3:54 pm 15:54 Sunny 79 26.1 48 8.9 34 34 S 24 39 29.47 998 10 16.09344 0 0
4:54 pm 16:54 Sunny 78 25.6 48 8.9 35 35 S 22 35 29.47 998 10 16.09344 0 0
5:54 pm 17:54 Sunny 75 23.9 49 9.4 40 40 S 14 22 29.5 999 10 16.09344 0 0
6:54 pm 18:54 Clear 70 21.1 49 9.4 47 47 S 14 22 29.53 1000 10 16.09344 0 0
7:54 pm 19:54 Partly Cloudy 65 18.3 50 10 59 59 S 10 17 29.56 1001 10 16.09344 0 0
8:54 pm 20:54 Cloudy 69 20.6 49 9.4 49 49 SW 8 13 29.62 1003 10 16.09344 0 0
9:54 pm 21:54 Cloudy 65 18.3 43 6.1 45 45 NNW 9 15 29.65 1004 10 16.09344 0 0
10:54 pm 22:54 Cloudy 63 17.2 44 6.7 50 50 NNE 10 17 29.65 1004 10 16.09344 0 0
11:54 pm 23:54 Cloudy 59 15 45 7.2 60 60 NNE 6 9 29.68 1005 10 16.09344 0 0

Powered by AerisWeather